sat.trackr.live / text

‹ back to catalog

STARLINK-34712

NORAD 64907 · 2025-157D

PAYLOAD ACTIVE UNKNOWN

§ Identity

Operator
Country
US
Launch date
2025-07-26
Launch site
AFETR
Launch vehicle
Mass (kg)
RCS (m²)

Purposes: comms

External: N2YO · Heavens-Above · Gunter

§ Orbital elements

Epoch: 2026-05-24T23:55:01.087104Z

Period
93.85 min
Inclination
53.1606°
Eccentricity
0.0001435
Mean motion
15.34401520 rev/d
Perigee alt
461.7 km
Apogee alt
463.7 km
Semi-major
6,840.8 km
B*
9.7219e-4
RAAN
350.0348°
Arg perigee
103.0031°
Mean anomaly
257.1132°
Rev number
4,782

§ Raw data

STARLINK-347121 64907U 25157D   26144.99654036  .00032615  00000+0  97219-3 0  99922 64907  53.1606 350.0348 0001435 103.0031 257.1132 15.34401520 47820

JSON: /api/v1/satellites/64907 · /tle

For live sub-satellite position, see the globe view (requires WebGL).

§ Visibility from observer

Set your observer location to see the next 7 days of passes ≥ 10°. The values pass through the URL so the page stays shareable.

No JS? Fill the form by hand. The geolocation button needs JavaScript.